• Join FlightAware (Why Join?)
  • Login
  • US Flag 
10:44PM EDT


 

Airport Tracker/Info


-or-


 

Live Flight TrackerFlight Track Log ✈ BJS542 ✈ 24-Aug-2013 ✈ KSDL - KSBA

Flight Track Log - Related Links

Times and Time Zones

All times are in EDT time to prevent confusion due to time zone crossing. See the BJS542 flight status page for this flight to view local times or setup timezone preferences in your user account.

Time Position Orientation Groundspeed Altitude Reporting Facility
EDT Latitude Longitude Course Direction KTS MPH feet Rate Location/Type
02:15PM 33.6000 -111.9333 287° West 181 208 2,500  Level Phoenix TRACON
02:16PM 33.6167 -112.0000 287° West 235 270 4,900 2,100 Climbing Phoenix TRACON
02:17PM 33.6572 -112.0214 336° Northwest 266 306 5,900 2,220 Climbing Albuquerque Center
02:18PM 33.6772 -111.9567 70° East 269 310 8,800 2,820 Climbing Albuquerque Center
02:19PM 33.5994 -111.9528 178° South 312 359 11,700 2,700 Climbing Albuquerque Center
02:20PM 33.5247 -112.0178 216° Southwest 340 391 14,500 2,820 Climbing Albuquerque Center
02:21PM 33.4619 -112.1097 231° Southwest 354 407 17,600 2,940 Climbing Albuquerque Center
02:22PM 33.4322 -112.2439 255° West 371 427 20,600 1,620 Climbing Albuquerque Center
02:23PM 33.4369 -112.3769 272° West 394 453 21,000 180 Climbing Albuquerque Center
02:24PM 33.4422 -112.5147 273° West 411 473 21,000  Level Albuquerque Center
02:25PM 33.4472 -112.6483 273° West 412 474 21,000 480 Level Albuquerque Center
02:26PM 33.4528 -112.7811 273° West 405 466 22,000 1,320 Climbing Albuquerque Center
02:27PM 33.4719 -112.9194 279° West 421 484 23,800 1,920 Climbing Albuquerque Center
02:28PM 33.5039 -113.0833 283° West 425 489 26,000 2,100 Climbing Albuquerque Center
02:29PM 33.5292 -113.2169 283° West 418 481 28,200 1,980 Climbing Albuquerque Center
02:30PM 33.5544 -113.3494 283° West 413 475 30,200 1,800 Climbing Albuquerque Center
02:31PM 33.5675 -113.4844 277° West 412 474 32,000 1,320 Climbing Albuquerque Center
02:32PM 33.5644 -113.6261 269° West 423 487 33,000 1,260 Climbing Albuquerque Center
02:33PM 33.5753 -113.7706 275° West 434 499 34,700 1,440 Climbing Albuquerque Center
02:34PM 33.5922 -113.9136 278° West 436 502 36,000 1,380 Climbing Albuquerque Center
02:35PM 33.6103 -114.0706 278° West 443 510 37,600 1,740 Climbing Albuquerque Center
02:36PM 33.6300 -114.2333 278° West 439 505 39,600 1,140 Climbing Albuquerque Center
02:37PM 33.6469 -114.3706 278° West 425 489 40,000 180 Climbing Albuquerque Center
02:38PM 33.6628 -114.5114 278° West 426 490 40,000  Level Albuquerque Center
02:40PM 33.6878 -114.7128 279° West 426 490 40,000  Level Los Angeles Center
02:41PM 33.7047 -114.8525 278° West 424 488 40,000  Level Los Angeles Center
02:42PM 33.7197 -114.9922 277° West 424 488 40,000  Level Los Angeles Center
02:43PM 33.7364 -115.1322 278° West 425 489 40,000  Level Los Angeles Center
02:44PM 33.7525 -115.2994 277° West 424 488 40,000  Level Los Angeles Center
02:45PM 33.7686 -115.4397 278° West 426 490 40,000  Level Los Angeles Center
02:46PM 33.7842 -115.5808 278° West 429 494 40,000  Level Los Angeles Center
02:47PM 33.7992 -115.7219 277° West 427 491 40,000  Level Los Angeles Center
02:48PM 33.8128 -115.8628 277° West 428 493 40,000  Level Los Angeles Center
02:49PM 33.8286 -116.0056 278° West 431 496 40,000  Level Los Angeles Center
02:50PM 33.8450 -116.1717 277° West 423 487 40,000  Level Los Angeles Center
02:51PM 33.8592 -116.3078 277° West 416 479 40,000  Level Los Angeles Center
02:52PM 33.8731 -116.4442 277° West 414 476 40,000  Level Los Angeles Center
02:53PM 33.8806 -116.5811 274° West 414 476 40,000  Level Los Angeles Center
02:54PM 33.9094 -116.7211 284° West 427 491 40,000  Level Los Angeles Center
02:55PM 33.9447 -116.8850 285° West 426 490 40,000  Level Los Angeles Center
02:56PM 33.9739 -117.0228 284° West 426 490 40,000 -600 Level Los Angeles Center
02:57PM 34.0028 -117.1611 284° West 426 490 38,800 -1,320 Descending Los Angeles Center
02:58PM 34.0347 -117.3056 285° West 431 496 37,300 -1,500 Descending Los Angeles Center
02:59PM 34.0642 -117.4453 284° West 442 509 35,800 -1,620 Descending Los Angeles Center
03:00PM 34.1006 -117.6175 284° West 445 512 34,000 -2,100 Descending Los Angeles Center
03:01PM 34.1297 -117.7586 284° West 440 506 31,500 -2,460 Descending Los Angeles Center
03:02PM 34.1611 -117.9053 285° West 449 517 29,000 -1,740 Descending Los Angeles Center
03:03PM 34.1931 -118.0592 284° West 471 542 28,000 -540 Descending Los Angeles Center
03:04PM 34.2211 -118.2003 284° West 444 511 28,000 -900 Level Los Angeles Center
03:05PM 34.2544 -118.3672 284° West 432 497 26,200 -1,860 Descending Los Angeles Center
03:06PM 34.2828 -118.5139 283° West 449 517 24,200 -2,040 Descending Los Angeles Center
03:07PM 34.3108 -118.6558 283° West 440 506 22,000 -1,560 Descending Los Angeles Center
03:08PM 34.3378 -118.7906 284° West 421 484 21,000 -1,020 Descending Los Angeles Center
03:10PM 34.3544 -118.9161 279° West 386 444 20,000 -1,800 Descending Los Angeles Center
03:11PM 34.3439 -119.0481 265° West 393 452 17,300 -2,760 Descending Los Angeles Center
03:12PM 34.3342 -119.1922 265° West 360 414 14,400 -2,700 Descending Los Angeles Center
03:13PM 34.3253 -119.3047 265° West 341 392 11,800 -2,100 Descending Los Angeles Center
03:14PM 34.3156 -119.4119 264° West 329 379 10,100 -1,440 Descending Los Angeles Center
03:15PM 34.3314 -119.5039 282° West 288 331 8,900 -1,320 Descending Los Angeles Center
03:16PM 34.3492 -119.5936 284° West 279 321 7,500 -1,440 Descending Los Angeles Center
03:17PM 34.3522 -119.6847 272° West 272 313 6,000 -1,260 Descending Los Angeles Center
03:18PM 34.3547 -119.7656 272° West 256 295 5,000 -1,800 Descending Los Angeles Center
03:19PM 34.3886 -119.8281 303° West 227 261 2,400 -1,620 Descending Los Angeles Center
03:20PM 34.4069 -119.8744 296° West 181 208 1,700 -1,080 Descending Los Angeles Center
03:21PM 34.4261 -119.8614 29° Northeast 138 159 200 -780 Descending Los Angeles Center
03:22PM 34.4269 -119.8086 89° East 160 184 100 -120 Descending Los Angeles Center